Home > Weather > Görlitz > Past weeks

Flag for Germany Past Weather in Görlitz, Saxony, Germany — Yesterday and Last 2 Weeks

Now
67 °F

Overcast.


Feels Like: 67 °F
Forecast: 57 / 78 °F
Wind: 6 mph from Southeast

Location: Liberec

Current Time: May 30, 2016 at 10:47:13 AM

Latest Report: May 30, 2016 at 10:00 AM


Visibility: 25 mi

Pressure: 29.67 "Hg

Humidity: 65%

Dew Point: 54 °F

Location of GörlitzLocation

Past Weather in Görlitz — Graph

°F

Görlitz Temperature Yesterday

Maximum temperature yesterday: 77 °F (at 5:00 PM)
Minimum temperature yesterday: 56 °F (at 2:00 AM)
Average temperature yesterday: 67 °F

High & Low Weather Summary for the Past Weeks

 TemperatureHumidityPressure
High78 °F (May 22, 5:00 PM)98% (May 28, 12:00 AM)30.14 "Hg (May 28, 12:00 AM)
Low37 °F (May 17, 2:00 AM)30% (May 22, 2:00 PM)29.62 "Hg (May 30, 4:00 AM)
Average57 °F68%29.92 "Hg
* Reported May 15 9:00 AM — May 30 9:00 AM, Görlitz, Weather by CustomWeather, © 2016

Note: Actual official high and low records may vary slightly from our data, if they occured in-between our weather recording intervals... More about our weather records

Advertising

Görlitz Weather History for the Previous 24 Hours

Scroll right to see more
 ConditionsComfort  
Time TempWeatherWind HumidityBarometerVisibility
9:00 AM
Mon, May 30
66 °FOvercast.6 mph62%29.67 "Hg25 mi
8:00 AM67 °FPartly sunny.5 mph61%29.65 "Hg25 mi
7:00 AM66 °FMild.5 mph65%29.65 "Hg12 mi
6:00 AM66 °FMild.5 mph66%29.63 "Hg12 mi
5:00 AM67 °FMild.2 mph69%29.62 "Hg12 mi
4:00 AM68 °FMild.3 mph69%29.62 "Hg12 mi
3:00 AM67 °FMild.3 mph73%29.62 "Hg12 mi
2:00 AM65 °FMild.2 mph76%29.65 "Hg12 mi
1:00 AM65 °FMild.3 mph74%29.66 "Hg12 mi
12:00 AM66 °FMild.2 mph76%29.67 "Hg12 mi
11:00 PM
Sun, May 29
67 °FMild.2 mph80%29.68 "Hg12 mi
10:00 PM66 °FPassing clouds.1 mph77%29.66 "Hg19 mi
9:00 PM71 °FScattered clouds.2 mph66%29.66 "Hg19 mi
8:00 PM73 °FPartly sunny.2 mph57%29.66 "Hg25 mi
7:00 PM75 °FMild.3 mph51%29.66 "Hg12 mi
6:00 PM75 °FMild.3 mph47%29.67 "Hg12 mi
5:00 PM77 °FPartly sunny.5 mph46%29.67 "Hg25 mi
3:00 PM74 °FOvercast.3 mph51%29.70 "Hg25 mi
2:00 PM76 °FPartly sunny.3 mph48%29.70 "Hg25 mi
1:00 PM73 °FOvercast.3 mph51%29.72 "Hg22 mi
12:00 PM72 °FPartly sunny.3 mph52%29.74 "Hg25 mi
11:00 AM71 °FPartly sunny.3 mph54%29.74 "Hg25 mi
10:00 AM71 °FScattered clouds.3 mph57%29.75 "Hg25 mi
Weather by CustomWeather, © 2016

See weather overviewHow to use our weather pages